Tracking 22836 objects as of 18-Apr-2021
HD Live streaming from Space Station
objects crossing your sky now

DELTA 1 DEB

Track DELTA 1 DEB now!
10-day predictions


NORAD ID: 9976
Int'l Code: 1973-086GF
Perigee: 1,499.4 km
Apogee: 1,570.3 km
Inclination: 102.3 °
Period: 116.6 minutes
Semi major axis: 7905 km
RCS: 0.0352 m2 (small)
Launch date: November 6, 1973
Source: United States (US)
Launch site: AIR FORCE WESTERN TEST RANGE (AFWTR)

Note: This is SATELLITE DEBRIS
aabbcc
Your satellite tracking list
Your tracking list is empty




NASA's NSSDC Master Catalog

Two Line Element Set (TLE):
1 09976U 73086GF  21107.91087324  .00000011  00000-0  44818-3 0  9990
2 09976 102.3151  92.2189 0044848  51.4442   6.3897 12.35044771 63348
Source of the keplerian elements: AFSPC